Location: Maddington
(51.2000°N, 1.9167°W)
Time: 14:24:17
(UTC+00:00)

Cosmos 1125 Rocket - Pass Details

Date: 24 June 2021
Orbit: 757 x 780 km, 74.0° (Epoch: 28 July)

Event Time Altitude Azimuth Distance (km) Brightness Sun altitude
Rises 00:16:36 0° 339° (NNW) 3,246 8.1 -15.4°
Reaches altitude 10° 00:19:20 10° 352° (N) 2,320 7.3 -15.4°
Maximum altitude 00:23:48 27° 50° (NE) 1,446 5.4 -15.3°
Drops below altitude 10° 00:28:17 10° 108° (ESE) 2,322 5.9 -15.3°
Sets 00:31:00 0° 120° (ESE) 3,249 6.5 -15.2°
